Wind_Speed
22 23 28 32 35 42 44 46 47 47 47 48 44 45 42 40 36 32 30 23 17 17 15 12 13 11 16 14 11 10 7 9 9 16 16 20 25 29 33 35 37 37 36 37 39
25 27 30 31 35 38 43 43 44 46 47 45 43 42 40 38 34 29 24 21 21 19 16 15 13 12 12 15 16 15 3 7 8 8 11 14 21 25 27 29 30 33 34 32 32
27 29 32 31 32 38 42 43 45 46 45 45 43 41 37 34 32 30 29 19 17 22 17 14 13 12 11 12 12 11 6 5 5 6 9 11 17 18 20 23 25 26 27 27 28
29 31 32 34 35 42 45 46 46 47 44 42 38 35 33 31 28 26 16 19 18 20 15 15 12 9 7 5 4 4 4 4 1 3 7 8 12 13 15 18 18 20 21 20 21
32 33 34 38 39 41 43 45 46 45 43 39 36 32 31 27 24 23 18 21 19 16 13 14 9 6 4 4 3 2 2 2 5 4 5 8 9 9 10 14 15 14 15 15 13
34 35 35 39 42 41 45 45 44 44 42 38 34 32 30 26 22 22 17 18 16 17 16 13 8 5 4 5 3 6 4 8 7 9 9 10 10 10 9 11 14 13 10 11 9
37 36 37 41 43 41 43 44 42 43 40 34 31 31 28 25 22 23 21 13 12 11 13 11 8 6 4 4 4 6 9 9 10 13 14 12 14 13 12 11 10 10 10 9 10
39 38 39 42 45 43 42 42 42 41 37 35 32 30 26 23 21 17 17 16 17 10 11 10 5 3 3 6 6 8 10 9 18 13 12 15 19 14 15 15 14 11 6 6 7
38 40 40 41 43 44 42 41 42 41 38 36 34 31 28 26 24 20 14 10 8 7 9 6 6 9 9 6 10 16 8 13 13 16 19 16 13 15 18 19 19 14 12 9 8
37 41 40 41 41 42 43 41 41 39 36 36 35 33 31 28 28 23 19 10 8 10 11 10 11 11 12 11 5 17 14 13 12 7 18 15 15 17 18 20 22 21 18 14 14
37 41 40 40 41 41 40 40 38 38 38 35 33 31 31 29 27 27 24 16 13 15 15 15 15 17 20 17 18 21 20 19 17 17 19 18 20 22 24 25 25 25 25 24 25
38 39 42 39 40 40 40 39 37 37 37 36 34 32 31 29 29 27 26 22 18 16 19 20 14 24 21 22 23 24 26 25 23 23 21 21 24 27 29 28 29 28 28 29 28
39 36 39 41 39 40 39 39 38 37 36 37 33 31 30 30 29 26 25 23 21 21 20 26 22 23 25 26 23 23 26 28 28 28 28 27 27 34 35 35 31 31 32 32 32
39 37 34 41 41 39 39 40 40 39 38 37 35 34 32 31 31 29 25 23 23 23 24 26 28 28 29 29 26 26 26 28 30 31 30 33 33 38 35 26 39 38 39 37 36
40 38 34 33 39 41 40 39 39 39 37 38 37 35 33 31 31 29 27 23 23 23 25 11 21 27 29 29 31 33 32 32 32 33 30 31 40 40 40 47 45 44 44 44 44
42 38 36 32 33 36 39 39 38 39 40 39 38 37 35 34 33 31 28 25 24 26 28 31 34 31 32 33 33 32 33 34 35 37 38 40 44 43 44 44 43 43 42 40 39
43 40 38 35 32 32 33 35 36 38 38 37 37 37 36 36 35 32 30 27 26 25 31 31 31 33 33 32 31 33 35 38 40 42 43 43 41 41 39 37 37 38 40 43 44
41 42 39 37 35 32 31 32 34 35 36 37 36 36 35 35 34 32 29 28 29 28 28 25 32 33 34 36 37 38 38 38 38 39 40 39 34 32 35 36 37 40 41 44 45
41 42 41 38 38 36 34 33 32 32 32 33 33 33 32 32 31 31 32 30 29 30 31 34 35 37 38 37 37 35 36 35 33 31 32 33 32 32 34 36 38 40 42 42 43
40 40 41 40 38 38 37 36 34 33 33 32 32 32 32 32 32 32 31 31 31 32 33 35 36 37 37 36 34 31 29 28 28 29 31 31 32 35 38 41 43 43 44 43 43
41 40 40 41 41 39 38 38 38 37 37 36 36 36 35 35 35 35 34 33 33 34 35 36 37 38 35 30 27 26 26 27 28 27 30 34 36 38 41 42 44 46 49 50 52
41 41 40 39 40 41 41 40 39 39 38 37 37 37 37 37 37 36 36 36 36 35 33 33 32 30 28 28 26 25 26 26 27 29 32 35 37 36 38 41 44 46 48 54 57
40 41 40 39 39 37 37 39 39 39 38 40 41 41 41 41 40 40 37 35 34 33 32 31 28 28 26 25 26 26 27 27 30 32 36 38 40 41 42 45 47 48 52 54 59
40 41 41 37 36 36 37 36 35 34 34 36 37 38 39 39 37 36 35 34 32 32 31 29 26 24 24 26 28 28 30 31 34 37 40 43 44 46 47 50 52 53 56 57 59
37 38 39 34 35 36 37 34 32 33 33 33 33 33 32 32 32 31 30 29 29 26 26 26 25 26 28 30 30 32 33 35 38 40 42 44 46 48 48 50 54 56 58 59 63
31 30 32 31 34 36 33 32 32 32 32 31 31 29 29 28 28 27 27 26 26 27 27 28 28 30 33 30 32 35 37 39 42 42 43 44 47 49 51 54 56 57 59 64 67
31 32 31 31 32 32 30 28 28 28 27 27 26 27 27 27 26 26 27 28 29 29 30 31 32 32 34 32 33 37 39 40 41 43 45 46 50 52 55 56 60 61 64 67 71
Wind_Direction
145 139 132 133 132 135 137 135 137 139 141 143 142 143 147 149 151 157 161 153 147 150 128 127 125 118 102 100 93 68 35 63 69 55 36 40 46 47 48 46 48 54 54 61 65
149 146 141 142 142 144 143 142 141 141 141 138 143 147 151 154 156 159 149 145 154 150 141 115 122 114 93 111 106 84 56 57 69 56 42 41 43 48 44 49 49 48 55 59 61
153 155 150 148 148 149 148 145 144 142 142 149 151 154 154 155 154 153 147 140 148 141 139 137 121 120 117 115 141 153 150 84 53 30 28 40 30 32 39 35 43 50 52 55 65
158 158 155 152 152 149 146 145 145 147 152 154 154 153 154 155 153 151 162 154 158 155 143 148 130 122 120 111 144 147 146 168 106 11 356 357 23 24 24 30 30 37 55 52 54
162 161 160 158 154 152 153 151 152 155 157 158 156 158 159 158 158 146 148 155 159 158 165 170 159 154 144 138 143 165 353 257 226 242 285 311 333 360 7 13 18 26 34 53 60
164 163 165 163 160 159 156 157 159 161 163 163 160 163 166 165 166 151 136 146 148 154 159 172 185 180 164 196 248 274 280 292 282 258 253 266 290 312 331 350 4 10 21 15 57
167 166 169 166 167 167 164 165 163 166 168 170 167 168 169 170 161 162 140 141 159 174 186 199 194 198 236 264 309 315 288 286 296 305 279 265 277 272 296 313 332 358 355 3 359
171 170 172 173 170 171 171 170 169 172 172 176 177 176 177 172 177 179 147 149 150 158 208 213 220 273 306 312 329 349 341 337 303 303 317 303 263 268 273 293 304 319 329 324 325
176 174 175 176 178 176 177 175 174 177 178 179 181 183 185 181 182 178 171 162 180 192 182 219 244 259 258 260 355 317 305 295 300 298 293 302 303 285 287 289 291 300 308 291 274
180 178 178 180 182 183 184 181 179 180 182 182 186 189 192 189 185 190 189 201 231 235 230 235 242 253 270 280 209 256 278 282 289 320 285 299 300 294 294 295 296 294 298 296 284
181 183 182 184 186 188 190 188 188 186 187 190 192 199 198 196 200 203 207 227 249 249 240 248 250 242 259 268 260 263 269 282 278 272 279 285 296 294 292 290 292 294 295 292 293
182 185 186 188 189 192 195 196 196 195 197 200 201 203 209 210 209 217 226 240 254 253 255 256 223 256 266 271 269 272 276 277 273 274 278 278 292 297 297 300 300 293 290 290 291
184 185 189 191 191 193 197 200 203 204 203 205 210 214 219 222 222 229 238 247 258 254 251 249 263 263 272 278 269 273 273 274 277 288 285 288 298 298 303 301 298 296 294 291 293
185 187 189 194 195 196 199 203 205 209 210 214 217 221 225 227 230 237 244 250 250 252 252 257 260 263 273 279 274 279 282 281 279 287 292 287 292 296 300 288 293 291 289 285 281
186 190 190 193 196 199 202 206 210 213 215 217 220 222 226 230 235 241 249 254 258 258 260 264 260 270 276 279 283 284 284 284 282 287 284 270 286 287 284 283 287 288 287 287 286
187 192 193 192 195 201 203 209 214 215 218 221 223 228 230 234 237 244 247 251 257 256 254 260 272 278 277 279 282 285 286 286 285 285 283 283 285 286 289 292 295 296 295 293 290
190 193 195 196 197 199 203 207 212 215 218 221 224 228 232 235 240 244 245 251 254 262 275 267 271 274 277 281 284 284 285 286 287 287 288 289 291 294 294 294 294 294 293 292 292
193 195 197 198 200 202 204 207 213 217 221 226 232 236 239 241 243 247 250 252 254 251 239 263 274 275 279 283 286 288 289 290 291 293 295 295 290 286 290 295 300 301 300 300 298
196 199 202 202 205 206 209 212 214 219 224 229 233 237 239 242 243 249 252 252 254 256 258 267 274 278 281 285 288 292 290 290 287 284 286 290 292 293 301 305 306 303 301 301 301
202 203 205 208 209 211 214 217 220 221 224 228 232 236 239 244 248 249 252 256 260 265 270 273 277 281 284 286 284 281 279 279 288 294 298 300 305 308 309 308 306 304 302 304 303
206 209 208 211 215 218 220 221 225 228 230 232 236 239 243 247 250 254 258 261 265 269 272 276 280 281 279 276 273 270 276 286 291 295 300 304 307 306 306 307 307 306 305 304 304
210 214 216 215 219 222 226 230 232 235 238 241 244 245 249 252 255 259 262 265 269 273 273 273 270 268 264 265 267 278 287 289 292 298 298 296 298 301 305 305 304 302 302 304 304
214 218 220 221 222 228 233 238 242 246 250 251 252 253 255 258 261 262 263 264 266 266 264 262 256 259 262 267 279 285 288 292 297 298 298 299 302 303 305 306 307 306 306 306 306
216 219 221 224 223 230 236 243 247 250 253 251 252 253 253 255 255 258 260 260 255 252 252 256 260 265 272 281 286 286 287 288 292 297 299 300 303 306 310 311 310 310 310 310 307
221 221 224 226 227 233 240 246 250 250 249 249 250 249 249 249 251 250 248 247 247 250 254 259 266 272 278 282 283 284 287 292 296 298 299 304 307 306 310 311 311 311 311 310 306
215 216 221 225 227 234 240 244 246 246 243 244 243 245 247 247 249 249 248 251 255 258 260 265 269 275 278 280 285 289 294 297 300 302 304 307 307 309 310 311 310 312 310 309 309
212 215 219 224 230 235 236 238 239 242 242 239 240 241 242 242 244 247 252 255 258 258 261 265 270 273 277 281 285 290 295 298 301 304 306 309 308 310 313 313 312 317 314 315 316
Height
10948 10949 10951 10954 10957 10959 10961 10964 10968 10974 10979 10984 10990 10995 10999 11005 11010 11014 11018 11022 11025 11028 11031 11033 11034 11036 11037 11039 11042 11043 11044 11040 11039 11036 11036 11032 11027 11024 11021 11017 11014 11009 11005 11002 10999
10949 10952 10954 10958 10961 10964 10967 10970 10975 10979 10985 10990 10994 10998 11003 11008 11012 11016 11020 11024 11027 11031 11033 11035 11037 11038 11040 11042 11045 11027 11043 11043 11040 11040 11038 11035 11032 11028 11026 11023 11020 11017 11014 11011 11008
10950 10953 10956 10960 10964 10967 10971 10975 10980 10985 10989 10993 10997 11001 11006 11011 11015 11020 11023 11027 11029 11033 11035 11037 11038 11039 11041 11044 11046 11047 11047 11044 11042 11040 11039 11037 11035 11032 11029 11027 11024 11023 11021 11018 11016
10950 10954 10958 10962 10967 10971 10975 10979 10984 10989 10992 10996 11000 11005 11009 11014 11019 11022 11026 11027 11031 11034 11036 11038 11039 11041 11042 11044 11045 11044 11045 11044 11044 11042 11040 11038 11037 11036 11034 11031 11029 11027 11026 11025 11023
10950 10954 10958 10963 10968 10973 10978 10983 10986 10991 10995 10999 11004 11007 11011 11016 11020 11024 11026 11029 11031 11034 11036 11038 11040 11042 11042 11044 11045 11046 11046 11045 11045 11044 11043 11041 11039 11038 11036 11034 11032 11030 11029 11028 11027
10949 10953 10958 10964 10970 10974 10980 10985 10990 10994 10997 11001 11005 11009 11013 11018 11021 11025 11028 11029 11032 11034 11036 11038 11040 11041 11043 11045 11047 11047 11047 11046 11045 11045 11044 11043 11041 11040 11038 11037 11034 11033 11031 11030 11029
10948 10953 10958 10964 10970 10976 10980 10986 10991 10996 11000 11004 11007 11010 11014 11018 11021 11024 11028 11031 11033 11035 11037 11038 11040 11042 11045 11047 11048 11047 11047 11046 11046 11045 11044 11043 11043 11040 11038 11037 11037 11035 11033 11032 11030
10948 10952 10957 10964 10970 10976 10981 10986 10992 10997 11002 11006 11009 11012 11016 11019 11022 11024 11027 11030 11033 11034 11036 11039 11041 11043 11044 11045 11047 11046 11044 11044 11044 11044 11043 11043 11043 11040 11038 11036 11036 11035 11033 11032 11030
10946 10951 10957 10963 10970 10975 10981 10986 10991 10996 11001 11005 11009 11012 11016 11020 11023 11025 11027 11029 11031 11033 11037 11039 11040 11041 11043 11046 11050 11048 11045 11043 11044 11044 11042 11041 11040 11039 11038 11036 11034 11034 11032 11031 11030
10944 10950 10957 10963 10969 10975 10980 10986 10991 10996 11000 11004 11008 11011 11015 11019 11022 11024 11027 11029 11032 11034 11037 11038 11039 11041 11041 11043 11048 11043 11045 11043 11044 11044 11040 11039 11038 11038 11037 11035 11032 11031 11029 11028 11027
10943 10950 10956 10962 10968 10975 10980 10985 10991 10996 10999 11004 11008 11011 11015 11018 11021 11024 11026 11029 11032 11034 11036 11038 11040 11040 11040 11039 11040 11041 11039 11040 11039 11039 11037 11037 11035 11033 11032 11031 11029 11027 11024 11023 11022
10943 10949 10955 10962 10967 10973 10979 10984 10989 10995 10999 11002 11006 11010 11012 11016 11020 11023 11026 11029 11031 11033 11035 11037 11040 11038 11037 11036 11035 11034 11034 11034 11033 11032 11032 11032 11031 11027 11025 11024 11023 11021 11020 11018 11016
10942 10948 10954 10960 10967 10972 10978 10983 10987 10992 10996 11000 11004 11008 11011 11014 11018 11021 11023 11026 11029 11029 11033 11037 11032 11032 11032 11032 11031 11030 11029 11028 11027 11027 11027 11026 11024 11021 11019 11018 11015 11014 11013 11012 11010
10940 10947 10952 10958 10965 10971 10976 10981 10985 10989 10994 10998 11002 11005 11008 11011 11014 11018 11021 11024 11025 11024 11025 11026 11025 11025 11026 11027 11026 11026 11023 11022 11022 11022 11022 11019 11018 11014 11014 11009 11008 11006 11005 11004 11003
10939 10945 10951 10957 10962 10968 10974 10978 10983 10988 10992 10996 10999 11002 11005 11008 11011 11014 11017 11021 11022 11022 11022 11020 11020 11021 11021 11021 11020 11018 11017 11016 11016 11015 11018 11010 11010 11007 11003 11002 11000 10998 10996 10993 10991
10938 10944 10950 10955 10959 10965 10970 10975 10979 10984 10988 10992 10995 10998 11001 11004 11007 11010 11014 11019 11019 11016 11015 11014 11014 11015 11016 11016 11014 11012 11010 11008 11007 11006 11006 11005 11000 11000 10994 10990 10988 10985 10982 10980 10978
10936 10942 10947 10952 10957 10962 10967 10971 10976 10981 10984 10988 10991 10994 10997 11000 11003 11006 11010 11014 11014 11014 11011 11007 11008 11011 11011 11009 11007 11005 11003 11001 10998 10996 10994 10993 10990 10986 10985 10982 10979 10976 10972 10968 10965
10933 10939 10945 10950 10955 10959 10964 10968 10972 10976 10980 10984 10987 10990 10993 10995 10998 11001 11004 11007 11008 11009 11008 11004 11004 11006 11004 11001 10998 10995 10993 10991 10989 10986 10983 10982 10982 10980 10977 10972 10969 10964 10961 10957 10954
10931 10937 10942 10948 10952 10956 10961 10965 10968 10972 10976 10980 10983 10986 10988 10990 10993 10995 10998 11000 11001 11001 11001 10999 10999 10998 10996 10993 10990 10988 10984 10982 10980 10978 10976 10974 10972 10970 10967 10964 10960 10956 10951 10947 10943
10928 10933 10939 10944 10949 10953 10957 10961 10965 10969 10972 10975 10978 10980 10982 10985 10986 10988 10990 10993 10994 10994 10993 10993 10991 10989 10988 10986 10983 10981 10979 10976 10973 10970 10967 10965 10963 10959 10956 10953 10950 10946 10940 10937 10933
10924 10929 10935 10940 10945 10949 10954 10957 10961 10964 10968 10970 10973 10975 10976 10978 10980 10981 10983 10985 10985 10986 10985 10985 10983 10981 10980 10978 10977 10975 10973 10971 10968 10965 10961 10956 10954 10952 10948 10944 10940 10934 10927 10923 10919
10921 10926 10931 10936 10940 10944 10948 10952 10956 10958 10961 10964 10966 10968 10970 10971 10972 10973 10974 10976 10976 10977 10976 10976 10975 10973 10973 10972 10970 10968 10966 10963 10961 10958 10955 10951 10949 10947 10943 10937 10932 10926 10920 10910 10905
10918 10922 10927 10932 10937 10941 10944 10947 10950 10953 10955 10957 10959 10960 10962 10963 10964 10965 10967 10968 10969 10968 10968 10967 10968 10967 10966 10965 10963 10961 10958 10955 10953 10950 10947 10944 10940 10935 10933 10926 10921 10915 10908 10900 10890
10914 10918 10922 10928 10933 10936 10938 10942 10944 10946 10947 10949 10950 10952 10954 10955 10957 10958 10960 10960 10960 10961 10960 10959 10960 10959 10958 10957 10955 10953 10951 10949 10947 10943 10939 10933 10930 10925 10920 10913 10908 10901 10894 10886 10877
10910 10915 10919 10925 10929 10931 10932 10936 10937 10938 10939 10941 10942 10944 10946 10948 10949 10951 10952 10952 10952 10953 10953 10953 10952 10952 10951 10949 10948 10946 10944 10942 10938 10934 10929 10923 10918 10913 10910 10903 10896 10890 10881 10873 10861
10907 10912 10916 10920 10921 10923 10926 10928 10929 10930 10932 10934 10936 10938 10940 10941 10942 10943 10944 10944 10945 10945 10945 10945 10945 10944 10943 10943 10940 10936 10933 10930 10926 10923 10919 10914 10907 10901 10897 10892 10885 10880 10871 10859 10850
10902 10906 10909 10912 10915 10917 10919 10922 10923 10925 10927 10929 10930 10932 10933 10934 10935 10936 10937 10937 10937 10938 10938 10937 10937 10937 10934 10934 10931 10926 10923 10920 10916 10912 10908 10903 10895 10890 10884 10877 10869 10864 10853 10844 10832